Stuart, FL

4:09 AM EST on February 10, 2016 (GMT -0500)
Witham

Weather History for KSUA - May, 2013

Change the Weather History Date:

Wednesday, May 22, 2013

  Actual Average Record
Temperature  
Mean Temperature 76 °F -  
Max Temperature 82 °F 85 °F 96 °F (1962)
Min Temperature 69 °F 69 °F 58 °F (1971)
Cooling Degree Days 10    
Growing Degree Days 26 (Base 50)    
Moisture  
Dew Point 71 °F    
Average Humidity 86    
Maximum Humidity 94    
Minimum Humidity 66    
Precipitation  
Precipitation 0.00 in - - ()
Sea Level Pressure  
Sea Level Pressure 29.96 in    
Wind  
Wind Speed 4 mph (SE)    
Max Wind Speed 14 mph    
Max Gust Speed 21 mph    
Visibility 9 miles    
Events Rain , Thunderstorm    
Averages and records for this station are not official NWS values.
T = Trace of Precipitation, MM = Missing Value Source: NWS Daily Summary

Daily Weather History Graph

Daily Weather History Graph

Search for Another Location

Airport or City:

Trip Planner

Search our weather history database for the weather conditions in past years. The results will help you decide how hot, cold, wet, or windy it might be!

Date:

Astronomy

May. 22, 2013 Rise Set
Actual Time 6:29 AM EDT 8:06 PM EDT
Civil Twilight 6:03 AM EDT 8:31 PM EDT
Nautical Twilight 5:32 AM EDT 9:02 PM EDT
Astronomical Twilight 5:00 AM EDT 9:34 PM EDT
Moon 5:37 PM EDT (5/22) 4:17 AM EDT (5/22)
Length of Visible Light 14h 28m
Length of Day
13h 36m
Waxing Gibbous, 91% of the Moon is Illuminated
May 22
Waxing Gibbous
May 25
Full
May 31
Last Quarter
Jun 8
New
Jun 16
First Quarter

Hourly Weather History & Observations

Time (EDT) Temp. Heat Index Dew Point Humidity Pressure Visibility Wind Dir Wind Speed Gust Speed Precip Events Conditions
12:15 AM 75.2 °F - 71.6 °F 89% 29.99 in 10.0 mi SE 6.9 mph - N/A   Clear
12:35 AM 75.2 °F - 69.8 °F 83% 29.98 in 10.0 mi SE 6.9 mph - N/A   Clear
12:55 AM 75.2 °F - 69.8 °F 83% 29.97 in 10.0 mi SE 3.5 mph - N/A   Clear
1:15 AM 75.2 °F - 69.8 °F 83% 29.96 in 10.0 mi SSE 5.8 mph - N/A   Clear
1:35 AM 75.2 °F - 69.8 °F 83% 29.96 in 10.0 mi South 3.5 mph - N/A   Clear
1:55 AM 75.2 °F - 69.8 °F 83% 29.96 in 10.0 mi SSE 3.5 mph - N/A   Clear
2:15 AM 75.2 °F - 69.8 °F 83% 29.95 in 10.0 mi Calm Calm - N/A   Clear
2:35 AM 73.4 °F - 69.8 °F 88% 29.95 in 10.0 mi SSE 3.5 mph - N/A   Clear
2:55 AM 73.4 °F - 69.8 °F 88% 29.95 in 10.0 mi Calm Calm - N/A   Clear
3:15 AM 73.4 °F - 69.8 °F 88% 29.95 in 10.0 mi Calm Calm - N/A   Clear
3:35 AM 71.6 °F - 69.8 °F 94% 29.94 in 10.0 mi Calm Calm - N/A   Clear
3:55 AM 71.6 °F - 69.8 °F 94% 29.94 in 10.0 mi Calm Calm - N/A   Clear
4:15 AM 71.6 °F - 69.8 °F 94% 29.94 in 10.0 mi Calm Calm - N/A   Clear
4:35 AM 71.6 °F - 68.0 °F 88% 29.95 in 10.0 mi Calm Calm - N/A   Clear
4:55 AM 69.8 °F - 68.0 °F 94% 29.95 in 10.0 mi Calm Calm - N/A   Scattered Clouds
5:15 AM 71.6 °F - 69.8 °F 94% 29.95 in 10.0 mi Calm Calm - N/A   Mostly Cloudy
5:35 AM 71.6 °F - 69.8 °F 94% 29.94 in 10.0 mi Calm Calm - N/A   Scattered Clouds
5:55 AM 71.6 °F - 69.8 °F 94% 29.94 in 10.0 mi Calm Calm - N/A Thunderstorm Scattered Clouds
6:15 AM 73.4 °F - 69.8 °F 88% 29.94 in 10.0 mi Calm Calm - N/A   Scattered Clouds
6:47 AM 73.4 °F - 71.6 °F 94% 29.96 in 10.0 mi Calm Calm - N/A   Mostly Cloudy
7:47 AM 75.2 °F - 73.4 °F 94% 29.96 in 10.0 mi Variable 3.5 mph - N/A   Scattered Clouds
8:47 AM 80.6 °F 85.4 °F 73.4 °F 79% 29.97 in 10.0 mi SSE 9.2 mph - N/A   Scattered Clouds
9:47 AM 82.4 °F 86.3 °F 69.8 °F 66% 29.98 in 7.0 mi SSE 6.9 mph - N/A Thunderstorm Mostly Cloudy
10:47 AM 82.4 °F 88.2 °F 73.4 °F 74% 29.98 in 7.0 mi SE 13.8 mph 20.7 mph N/A Thunderstorm Mostly Cloudy
11:47 AM 82.4 °F 87.2 °F 71.6 °F 70% 29.98 in 7.0 mi ESE 9.2 mph - N/A Thunderstorm Thunderstorm
12:47 PM 75.2 °F - 71.6 °F 89% 29.98 in 7.0 mi South 6.9 mph - N/A Rain , Thunderstorm Rain
2:47 PM 77.0 °F - 73.4 °F 89% 29.95 in 7.0 mi NE 5.8 mph - N/A Thunderstorm Mostly Cloudy
3:47 PM 80.6 °F 84.6 °F 71.6 °F 74% 29.94 in 7.0 mi ESE 8.1 mph - N/A   Mostly Cloudy
4:47 PM 82.4 °F 87.2 °F 71.6 °F 70% 29.94 in 7.0 mi ESE 13.8 mph 19.6 mph N/A   Mostly Cloudy
5:47 PM 80.6 °F 85.4 °F 73.4 °F 79% 29.94 in 7.0 mi East 13.8 mph 18.4 mph N/A Thunderstorm Mostly Cloudy
6:47 PM 78.8 °F - 73.4 °F 83% 29.93 in 7.0 mi East 13.8 mph 18.4 mph N/A   Mostly Cloudy
8:15 PM 77.0 °F - 71.6 °F 83% 29.94 in 10.0 mi SE 8.1 mph - N/A   Scattered Clouds
8:35 PM 77.0 °F - 71.6 °F 83% 29.94 in 10.0 mi SSE 5.8 mph - N/A   Clear
8:55 PM 77.0 °F - 71.6 °F 83% 29.94 in 10.0 mi SSE 4.6 mph - N/A   Clear
9:15 PM 77.0 °F - 71.6 °F 83% 29.94 in 10.0 mi SSE 5.8 mph - N/A   Clear
9:35 PM 75.2 °F - 71.6 °F 89% 29.96 in 10.0 mi SSE 3.5 mph - N/A   Clear
9:55 PM 75.2 °F - 71.6 °F 89% 29.96 in 10.0 mi Calm Calm - N/A   Clear
10:15 PM 75.2 °F - 71.6 °F 89% 29.97 in 10.0 mi Calm Calm - N/A   Clear
10:35 PM 73.4 °F - 71.6 °F 94% 29.97 in 10.0 mi Calm Calm - N/A   Clear
10:55 PM 73.4 °F - 71.6 °F 94% 29.97 in 10.0 mi SE 3.5 mph - N/A   Clear
11:15 PM 73.4 °F - 71.6 °F 94% 29.97 in 10.0 mi SSE 4.6 mph - N/A   Clear
11:35 PM 75.2 °F - 71.6 °F 89% 29.97 in 10.0 mi Calm Calm - N/A   Clear
11:55 PM 73.4 °F - 71.6 °F 94% 29.97 in 10.0 mi SSE 3.5 mph - N/A   Clear